QPF
0.00 0.00 0.00 0.00 0.00 0.00 0.00 0.00 0.00 0.00 0.00 0.01 0.01 0.02 0.02 0.01 0.01 0.01 0.01 0.01 0.00 0.00 0.00 0.00 0.00 0.00 0.00 0.00 0.00 0.00 0.00 0.01 0.02 0.02 0.02 0.02 0.02 0.02 0.02 0.03 0.03 0.03 0.02 0.02
0.00 0.00 0.00 0.00 0.00 0.00 0.00 0.00 0.00 0.00 0.00 0.00 0.01 0.01 0.02 0.01 0.00 0.01 0.02 0.02 0.01 0.00 0.00 0.00 0.00 0.00 0.00 0.00 0.00 0.00 0.00 0.01 0.01 0.01 0.01 0.02 0.03 0.02 0.01 0.01 0.02 0.02 0.02 0.01
0.00 0.00 0.00 0.00 0.00 0.00 0.00 0.00 0.00 0.00 0.00 0.01 0.01 0.02 0.01 0.01 0.01 0.00 0.01 0.02 0.02 0.01 0.01 0.00 0.00 0.00 0.00 0.00 0.00 0.00 0.00 0.00 0.00 0.01 0.02 0.03 0.03 0.03 0.02 0.01 0.02 0.03 0.02 0.01
0.00 0.00 0.00 0.00 0.00 0.00 0.00 0.00 0.00 0.00 0.01 0.02 0.01 0.03 0.02 0.01 0.00 0.00 0.01 0.01 0.02 0.02 0.01 0.01 0.01 0.01 0.01 0.01 0.00 0.00 0.00 0.00 0.00 0.00 0.01 0.02 0.02 0.03 0.02 0.01 0.01 0.02 0.02 0.02
0.01 0.00 0.00 0.00 0.00 0.00 0.00 0.00 0.00 0.00 0.01 0.02 0.01 0.02 0.02 0.01 0.01 0.01 0.01 0.01 0.01 0.02 0.02 0.01 0.01 0.01 0.02 0.01 0.00 0.00 0.00 0.00 0.00 0.00 0.00 0.01 0.02 0.03 0.02 0.01 0.01 0.01 0.01 0.02
0.01 0.01 0.00 0.00 0.00 0.00 0.00 0.00 0.01 0.01 0.01 0.04 0.01 0.01 0.02 0.01 0.01 0.01 0.01 0.01 0.01 0.02 0.02 0.02 0.02 0.02 0.02 0.01 0.00 0.00 0.00 0.01 0.00 0.01 0.01 0.01 0.02 0.02 0.01 0.01 0.00 0.01 0.01 0.02
0.01 0.00 0.00 0.00 0.00 0.00 0.01 0.02 0.03 0.03 0.04 0.03 0.01 0.01 0.01 0.00 0.00 0.00 0.00 0.00 0.01 0.02 0.03 0.02 0.01 0.02 0.02 0.01 0.00 0.00 0.00 0.00 0.00 0.00 0.01 0.01 0.01 0.01 0.00 0.01 0.01 0.01 0.01 0.02
0.01 0.01 0.00 0.00 0.00 0.00 0.00 0.01 0.03 0.03 0.03 0.02 0.01 0.01 0.01 0.00 0.00 0.00 0.00 0.00 0.01 0.01 0.03 0.03 0.02 0.02 0.02 0.02 0.01 0.01 0.00 0.00 0.00 0.00 0.00 0.01 0.01 0.01 0.01 0.00 0.01 0.01 0.01 0.01
0.01 0.01 0.00 0.00 0.00 0.00 0.00 0.01 0.01 0.02 0.02 0.02 0.02 0.01 0.01 0.00 0.00 0.00 0.00 0.00 0.00 0.00 0.01 0.02 0.03 0.02 0.04 0.04 0.02 0.00 0.00 0.00 0.00 0.00 0.00 0.00 0.01 0.01 0.01 0.01 0.01 0.01 0.01 0.01
0.00 0.00 0.00 0.00 0.00 0.01 0.00 0.01 0.01 0.02 0.02 0.02 0.01 0.01 0.00 0.00 0.00 0.00 0.00 0.00 0.00 0.00 0.01 0.01 0.02 0.03 0.06 0.07 0.05 0.02 0.01 0.01 0.01 0.01 0.01 0.01 0.01 0.00 0.00 0.00 0.00 0.01 0.01 0.02
0.01 0.01 0.00 0.00 0.01 0.01 0.01 0.01 0.02 0.02 0.02 0.02 0.02 0.01 0.00 0.00 0.00 0.00 0.00 0.00 0.00 0.00 0.00 0.01 0.02 0.03 0.05 0.06 0.05 0.03 0.01 0.02 0.01 0.01 0.01 0.00 0.01 0.00 0.00 0.00 0.00 0.00 0.01 0.01
0.02 0.02 0.01 0.01 0.00 0.00 0.01 0.01 0.02 0.01 0.01 0.02 0.02 0.02 0.01 0.00 0.00 0.00 0.00 0.00 0.00 0.01 0.01 0.01 0.01 0.03 0.04 0.04 0.06 0.04 0.02 0.02 0.02 0.02 0.01 0.01 0.00 0.01 0.00 0.00 0.00 0.01 0.01 0.01
0.02 0.03 0.03 0.02 0.01 0.01 0.00 0.01 0.01 0.01 0.01 0.02 0.02 0.01 0.01 0.00 0.00 0.00 0.00 0.00 0.00 0.00 0.01 0.02 0.01 0.02 0.02 0.02 0.05 0.05 0.04 0.03 0.03 0.02 0.01 0.01 0.00 0.01 0.01 0.01 0.00 0.01 0.01 0.01
0.03 0.03 0.02 0.02 0.02 0.02 0.02 0.01 0.01 0.02 0.02 0.01 0.01 0.01 0.01 0.00 0.00 0.00 0.00 0.00 0.00 0.00 0.00 0.01 0.02 0.01 0.01 0.01 0.02 0.03 0.03 0.03 0.02 0.02 0.01 0.01 0.01 0.02 0.03 0.02 0.01 0.01 0.01 0.02
0.03 0.02 0.01 0.01 0.01 0.02 0.02 0.02 0.02 0.03 0.02 0.02 0.01 0.01 0.01 0.01 0.00 0.00 0.00 0.00 0.00 0.00 0.00 0.00 0.01 0.01 0.01 0.01 0.01 0.02 0.03 0.03 0.02 0.02 0.01 0.01 0.01 0.02 0.02 0.02 0.02 0.02 0.01 0.01
0.02 0.01 0.01 0.01 0.01 0.01 0.01 0.01 0.02 0.02 0.01 0.01 0.01 0.02 0.02 0.01 0.01 0.01 0.00 0.00 0.00 0.00 0.00 0.00 0.00 0.00 0.00 0.00 0.01 0.01 0.02 0.02 0.02 0.02 0.01 0.01 0.01 0.01 0.01 0.01 0.01 0.02 0.02 0.02
0.01 0.01 0.01 0.01 0.01 0.02 0.02 0.01 0.01 0.01 0.01 0.01 0.01 0.02 0.03 0.02 0.02 0.02 0.01 0.00 0.00 0.00 0.00 0.00 0.00 0.00 0.00 0.00 0.00 0.01 0.02 0.02 0.02 0.02 0.02 0.01 0.01 0.01 0.01 0.01 0.02 0.02 0.03 0.03
0.01 0.01 0.01 0.01 0.01 0.02 0.01 0.01 0.01 0.01 0.01 0.01 0.02 0.02 0.02 0.02 0.02 0.02 0.01 0.01 0.00 0.00 0.00 0.00 0.00 0.00 0.00 0.01 0.01 0.01 0.02 0.02 0.02 0.02 0.03 0.03 0.02 0.02 0.01 0.01 0.01 0.02 0.02 0.03
0.01 0.01 0.02 0.01 0.02 0.01 0.00 0.00 0.01 0.01 0.01 0.01 0.02 0.02 0.02 0.02 0.01 0.01 0.01 0.01 0.01 0.00 0.00 0.00 0.00 0.01 0.01 0.01 0.00 0.00 0.01 0.01 0.01 0.02 0.03 0.04 0.05 0.04 0.02 0.01 0.01 0.01 0.01 0.02
0.01 0.01 0.02 0.02 0.02 0.01 0.00 0.00 0.00 0.01 0.01 0.01 0.02 0.02 0.02 0.02 0.02 0.02 0.02 0.01 0.01 0.00 0.00 0.01 0.01 0.00 0.00 0.00 0.01 0.01 0.01 0.01 0.01 0.02 0.01 0.02 0.03 0.04 0.02 0.02 0.01 0.01 0.01 0.02
0.01 0.02 0.01 0.01 0.02 0.01 0.00 0.00 0.00 0.01 0.01 0.01 0.01 0.02 0.02 0.02 0.02 0.02 0.02 0.02 0.01 0.01 0.01 0.01 0.00 0.01 0.01 0.01 0.01 0.01 0.01 0.01 0.01 0.01 0.02 0.02 0.02 0.03 0.03 0.03 0.02 0.01 0.01 0.01
0.02 0.03 0.03 0.02 0.02 0.02 0.00 0.00 0.01 0.01 0.01 0.01 0.01 0.01 0.01 0.01 0.02 0.02 0.02 0.01 0.01 0.01 0.01 0.00 0.00 0.00 0.01 0.01 0.01 0.01 0.01 0.01 0.01 0.01 0.01 0.01 0.01 0.01 0.02 0.03 0.02 0.02 0.01 0.02
0.01 0.02 0.03 0.03 0.03 0.02 0.01 0.01 0.01 0.01 0.01 0.01 0.01 0.01 0.01 0.01 0.01 0.01 0.00 0.00 0.00 0.00 0.01 0.01 0.01 0.00 0.01 0.01 0.01 0.01 0.01 0.01 0.02 0.01 0.01 0.02 0.02 0.01 0.01 0.02 0.03 0.02 0.02 0.02
0.01 0.01 0.01 0.02 0.02 0.01 0.00 0.01 0.01 0.00 0.00 0.00 0.00 0.00 0.00 0.00 0.00 0.00 0.00 0.00 0.00 0.00 0.00 0.01 0.01 0.01 0.01 0.00 0.00 0.00 0.00 0.01 0.01 0.02 0.02 0.02 0.02 0.02 0.02 0.02 0.02 0.03 0.03 0.03
0.01 0.01 0.01 0.02 0.02 0.01 0.00 0.00 0.00 0.01 0.01 0.00 0.00 0.00 0.00 0.00 0.00 0.00 0.00 0.00 0.00 0.00 0.00 0.00 0.00 0.01 0.01 0.01 0.00 0.00 0.00 0.00 0.01 0.01 0.01 0.02 0.02 0.01 0.02 0.02 0.02 0.03 0.03 0.04
0.00 0.01 0.01 0.01 0.01 0.01 0.01 0.00 0.00 0.01 0.01 0.00 0.00 0.00 0.00 0.00 0.00 0.00 0.00 0.00 0.00 0.00 0.00 0.00 0.00 0.00 0.00 0.00 0.00 0.00 0.00 0.00 0.01 0.01 0.01 0.01 0.02 0.02 0.02 0.01 0.01 0.02 0.03 0.03
MSLP
1010.37 1011.10 1011.74 1012.25 1012.64 1012.92 1013.10 1013.21 1013.23 1013.18 1013.05 1012.82 1012.53 1012.17 1011.81 1011.47 1011.24 1011.13 1011.19 1011.41 1011.77 1012.22 1012.69 1013.12 1013.46 1013.68 1013.78 1013.77 1013.69 1013.60 1013.54 1013.54 1013.62 1013.77 1013.98 1014.22 1014.46 1014.66 1014.80 1014.89 1014.94 1014.95 1014.95 1014.97
1010.85 1011.44 1011.92 1012.30 1012.59 1012.81 1013.00 1013.16 1013.28 1013.35 1013.34 1013.23 1013.00 1012.68 1012.29 1011.91 1011.59 1011.39 1011.36 1011.51 1011.82 1012.26 1012.75 1013.21 1013.60 1013.86 1013.99 1014.01 1013.94 1013.84 1013.77 1013.77 1013.85 1014.02 1014.24 1014.50 1014.75 1014.96 1015.10 1015.18 1015.20 1015.18 1015.15 1015.14
1011.18 1011.59 1011.90 1012.14 1012.32 1012.50 1012.71 1012.94 1013.19 1013.41 1013.56 1013.59 1013.47 1013.21 1012.84 1012.41 1012.01 1011.72 1011.59 1011.64 1011.89 1012.29 1012.76 1013.25 1013.67 1013.98 1014.15 1014.21 1014.17 1014.10 1014.05 1014.05 1014.14 1014.32 1014.55 1014.81 1015.06 1015.27 1015.40 1015.46 1015.45 1015.40 1015.34 1015.29
1011.35 1011.59 1011.74 1011.84 1011.94 1012.09 1012.32 1012.65 1013.04 1013.43 1013.75 1013.93 1013.94 1013.76 1013.42 1012.97 1012.50 1012.11 1011.87 1011.82 1011.97 1012.30 1012.75 1013.23 1013.67 1014.02 1014.25 1014.35 1014.37 1014.34 1014.31 1014.34 1014.44 1014.62 1014.86 1015.11 1015.36 1015.55 1015.66 1015.70 1015.67 1015.60 1015.51 1015.44
1011.39 1011.49 1011.51 1011.50 1011.54 1011.68 1011.97 1012.39 1012.91 1013.46 1013.94 1014.28 1014.42 1014.32 1014.00 1013.54 1013.01 1012.53 1012.18 1012.01 1012.07 1012.31 1012.70 1013.16 1013.61 1013.99 1014.27 1014.43 1014.50 1014.52 1014.53 1014.58 1014.69 1014.87 1015.10 1015.35 1015.58 1015.75 1015.86 1015.88 1015.84 1015.76 1015.66 1015.56
1011.35 1011.34 1011.27 1011.21 1011.22 1011.38 1011.72 1012.23 1012.87 1013.55 1014.17 1014.63 1014.87 1014.84 1014.56 1014.08 1013.51 1012.94 1012.49 1012.22 1012.17 1012.33 1012.65 1013.07 1013.52 1013.91 1014.22 1014.43 1014.55 1014.61 1014.66 1014.73 1014.85 1015.02 1015.24 1015.47 1015.68 1015.85 1015.95 1015.97 1015.94 1015.86 1015.76 1015.66
1011.24 1011.19 1011.08 1011.00 1011.03 1011.22 1011.61 1012.19 1012.92 1013.68 1014.40 1014.94 1015.25 1015.27 1015.01 1014.54 1013.94 1013.32 1012.79 1012.43 1012.29 1012.36 1012.62 1012.99 1013.41 1013.81 1014.14 1014.37 1014.52 1014.62 1014.69 1014.77 1014.89 1015.05 1015.25 1015.46 1015.66 1015.82 1015.92 1015.96 1015.94 1015.88 1015.80 1015.72
1011.08 1011.02 1010.93 1010.88 1010.95 1011.18 1011.62 1012.25 1013.01 1013.82 1014.57 1015.16 1015.50 1015.55 1015.33 1014.86 1014.26 1013.62 1013.06 1012.64 1012.44 1012.44 1012.63 1012.95 1013.34 1013.71 1014.03 1014.28 1014.44 1014.55 1014.62 1014.71 1014.81 1014.96 1015.14 1015.33 1015.51 1015.67 1015.78 1015.83 1015.84 1015.82 1015.77 1015.72
1010.85 1010.84 1010.81 1010.82 1010.95 1011.23 1011.69 1012.33 1013.09 1013.89 1014.63 1015.21 1015.56 1015.64 1015.44 1015.01 1014.44 1013.83 1013.28 1012.86 1012.62 1012.58 1012.72 1012.99 1013.32 1013.66 1013.95 1014.18 1014.34 1014.44 1014.51 1014.58 1014.67 1014.80 1014.95 1015.12 1015.29 1015.43 1015.55 1015.62 1015.66 1015.67 1015.67 1015.66
1010.56 1010.62 1010.68 1010.78 1010.96 1011.28 1011.75 1012.36 1013.08 1013.82 1014.50 1015.05 1015.39 1015.48 1015.33 1014.97 1014.48 1013.95 1013.45 1013.07 1012.85 1012.80 1012.90 1013.12 1013.39 1013.68 1013.93 1014.12 1014.25 1014.34 1014.39 1014.45 1014.52 1014.62 1014.74 1014.89 1015.03 1015.17 1015.28 1015.37 1015.43 1015.47 1015.50 1015.53
1010.22 1010.38 1010.53 1010.71 1010.95 1011.29 1011.73 1012.29 1012.92 1013.56 1014.16 1014.65 1014.96 1015.08 1015.00 1014.74 1014.38 1013.97 1013.59 1013.29 1013.12 1013.09 1013.17 1013.35 1013.57 1013.80 1013.99 1014.14 1014.23 1014.29 1014.33 1014.36 1014.42 1014.49 1014.59 1014.71 1014.83 1014.94 1015.04 1015.12 1015.18 1015.24 1015.30 1015.36
1009.88 1010.13 1010.37 1010.62 1010.90 1011.23 1011.62 1012.09 1012.60 1013.12 1013.61 1014.03 1014.32 1014.47 1014.47 1014.35 1014.14 1013.90 1013.68 1013.51 1013.43 1013.43 1013.52 1013.67 1013.84 1014.00 1014.13 1014.23 1014.29 1014.33 1014.35 1014.38 1014.42 1014.48 1014.56 1014.65 1014.73 1014.81 1014.88 1014.93 1014.98 1015.03 1015.09 1015.17
1009.60 1009.94 1010.25 1010.55 1010.84 1011.13 1011.44 1011.78 1012.15 1012.53 1012.90 1013.23 1013.50 1013.69 1013.80 1013.83 1013.81 1013.76 1013.72 1013.71 1013.73 1013.80 1013.91 1014.04 1014.16 1014.27 1014.35 1014.40 1014.44 1014.45 1014.47 1014.50 1014.55 1014.60 1014.67 1014.73 1014.78 1014.81 1014.83 1014.84 1014.85 1014.87 1014.92 1015.00
1009.46 1009.85 1010.22 1010.53 1010.79 1011.02 1011.22 1011.42 1011.63 1011.85 1012.09 1012.33 1012.58 1012.81 1013.02 1013.21 1013.38 1013.55 1013.70 1013.85 1014.00 1014.15 1014.29 1014.40 1014.50 1014.56 1014.60 1014.63 1014.65 1014.67 1014.70 1014.74 1014.80 1014.86 1014.92 1014.95 1014.97 1014.95 1014.91 1014.87 1014.83 1014.81 1014.83 1014.89
1009.48 1009.91 1010.29 1010.59 1010.80 1010.93 1011.00 1011.04 1011.08 1011.14 1011.24 1011.39 1011.61 1011.87 1012.19 1012.53 1012.89 1013.25 1013.60 1013.92 1014.20 1014.43 1014.60 1014.73 1014.80 1014.84 1014.86 1014.87 1014.89 1014.93 1014.99 1015.07 1015.15 1015.23 1015.28 1015.30 1015.28 1015.21 1015.12 1015.01 1014.92 1014.85 1014.83 1014.86
1009.65 1010.09 1010.46 1010.71 1010.85 1010.88 1010.81 1010.68 1010.55 1010.44 1010.41 1010.47 1010.65 1010.94 1011.34 1011.81 1012.34 1012.89 1013.41 1013.88 1014.28 1014.60 1014.83 1014.97 1015.04 1015.08 1015.09 1015.10 1015.14 1015.21 1015.31 1015.43 1015.54 1015.64 1015.70 1015.71 1015.66 1015.56 1015.41 1015.25 1015.10 1014.98 1014.92 1014.92
1009.91 1010.34 1010.67 1010.86 1010.92 1010.83 1010.62 1010.34 1010.04 1009.79 1009.63 1009.60 1009.74 1010.04 1010.50 1011.09 1011.76 1012.45 1013.13 1013.74 1014.25 1014.65 1014.93 1015.11 1015.20 1015.24 1015.27 1015.30 1015.37 1015.48 1015.62 1015.78 1015.94 1016.06 1016.13 1016.14 1016.06 1015.93 1015.74 1015.54 1015.35 1015.19 1015.09 1015.07
1010.15 1010.54 1010.82 1010.95 1010.92 1010.73 1010.41 1009.99 1009.57 1009.19 1008.92 1008.82 1008.92 1009.22 1009.73 1010.39 1011.17 1011.98 1012.78 1013.50 1014.12 1014.59 1014.93 1015.15 1015.27 1015.34 1015.39 1015.46 1015.56 1015.71 1015.89 1016.09 1016.28 1016.43 1016.51 1016.51 1016.43 1016.27 1016.07 1015.84 1015.62 1015.44 1015.32 1015.27
1010.23 1010.57 1010.80 1010.88 1010.78 1010.52 1010.11 1009.62 1009.10 1008.63 1008.29 1008.14 1008.21 1008.51 1009.05 1009.77 1010.61 1011.52 1012.41 1013.22 1013.91 1014.46 1014.86 1015.12 1015.28 1015.38 1015.47 1015.57 1015.71 1015.89 1016.11 1016.34 1016.55 1016.71 1016.80 1016.81 1016.72 1016.56 1016.34 1016.10 1015.88 1015.69 1015.57 1015.51
1010.06 1010.36 1010.54 1010.58 1010.45 1010.15 1009.71 1009.18 1008.63 1008.13 1007.76 1007.58 1007.63 1007.94 1008.50 1009.25 1010.14 1011.10 1012.06 1012.93 1013.69 1014.30 1014.75 1015.05 1015.26 1015.40 1015.52 1015.65 1015.82 1016.03 1016.27 1016.52 1016.74 1016.91 1017.00 1017.00 1016.91 1016.75 1016.54 1016.31 1016.10 1015.92 1015.80 1015.74
1009.63 1009.87 1010.03 1010.05 1009.92 1009.63 1009.21 1008.70 1008.16 1007.68 1007.33 1007.16 1007.23 1007.55 1008.11 1008.88 1009.80 1010.79 1011.78 1012.70 1013.49 1014.14 1014.63 1014.98 1015.22 1015.40 1015.55 1015.71 1015.90 1016.13 1016.37 1016.62 1016.84 1017.01 1017.10 1017.10 1017.02 1016.87 1016.67 1016.46 1016.27 1016.11 1016.00 1015.94
1008.96 1009.16 1009.29 1009.32 1009.22 1008.99 1008.63 1008.20 1007.74 1007.32 1007.02 1006.90 1007.00 1007.33 1007.91 1008.69 1009.61 1010.60 1011.59 1012.52 1013.34 1014.01 1014.53 1014.90 1015.18 1015.38 1015.56 1015.74 1015.94 1016.17 1016.42 1016.67 1016.88 1017.04 1017.12 1017.13 1017.05 1016.91 1016.73 1016.55 1016.37 1016.24 1016.14 1016.10
1008.16 1008.32 1008.44 1008.50 1008.45 1008.30 1008.05 1007.72 1007.37 1007.06 1006.85 1006.79 1006.93 1007.30 1007.88 1008.65 1009.56 1010.53 1011.51 1012.42 1013.23 1013.90 1014.43 1014.82 1015.12 1015.34 1015.54 1015.73 1015.94 1016.17 1016.41 1016.65 1016.85 1017.00 1017.08 1017.09 1017.02 1016.90 1016.74 1016.57 1016.42 1016.30 1016.22 1016.18
1007.35 1007.47 1007.59 1007.68 1007.70 1007.65 1007.52 1007.32 1007.10 1006.91 1006.80 1006.82 1007.02 1007.41 1007.99 1008.74 1009.61 1010.54 1011.48 1012.36 1013.14 1013.80 1014.32 1014.71 1015.01 1015.25 1015.45 1015.65 1015.86 1016.09 1016.33 1016.56 1016.76 1016.90 1016.99 1017.00 1016.94 1016.83 1016.69 1016.54 1016.40 1016.29 1016.21 1016.17
1006.66 1006.75 1006.86 1006.98 1007.07 1007.11 1007.09 1007.03 1006.94 1006.87 1006.86 1006.96 1007.20 1007.61 1008.18 1008.90 1009.72 1010.60 1011.48 1012.30 1013.04 1013.66 1014.16 1014.55 1014.84 1015.08 1015.28 1015.49 1015.70 1015.93 1016.17 1016.40 1016.59 1016.74 1016.83 1016.85 1016.81 1016.71 1016.58 1016.43 1016.30 1016.19 1016.10 1016.04
1006.17 1006.21 1006.31 1006.46 1006.60 1006.72 1006.80 1006.84 1006.87 1006.90 1006.97 1007.14 1007.42 1007.83 1008.38 1009.06 1009.83 1010.64 1011.45 1012.22 1012.90 1013.48 1013.94 1014.30 1014.59 1014.82 1015.02 1015.23 1015.44 1015.67 1015.91 1016.15 1016.35 1016.51 1016.61 1016.64 1016.60 1016.51 1016.39 1016.24 1016.10 1015.97 1015.86 1015.77
Thickness
5766 5754 5746 5753 5759 5759 5756 5751 5748 5756 5769 5759 5751 5750 5756 5763 5761 5759 5759 5759 5758 5759 5762 5763 5762 5760 5758 5756 5753 5750 5746 5743 5740 5735 5732 5728 5726 5726 5725 5725 5724 5722 5721 5719
5752 5745 5758 5765 5764 5759 5754 5746 5747 5756 5766 5759 5750 5751 5759 5762 5760 5760 5758 5757 5757 5757 5758 5757 5758 5756 5753 5752 5751 5749 5746 5742 5738 5734 5731 5728 5725 5723 5722 5721 5720 5719 5717 5715
5742 5752 5765 5759 5754 5750 5749 5745 5745 5747 5757 5758 5748 5740 5751 5759 5763 5762 5762 5761 5760 5757 5754 5754 5754 5751 5750 5748 5747 5746 5743 5740 5736 5733 5729 5726 5722 5719 5716 5714 5714 5714 5712 5711
5747 5758 5757 5751 5748 5748 5740 5754 5752 5748 5740 5735 5742 5718 5741 5751 5752 5755 5757 5758 5757 5758 5756 5753 5751 5748 5747 5745 5745 5744 5741 5738 5735 5731 5726 5720 5715 5711 5711 5711 5710 5709 5709 5707
5742 5752 5749 5743 5747 5751 5746 5756 5751 5747 5739 5733 5741 5725 5733 5748 5741 5747 5754 5756 5757 5757 5756 5752 5749 5746 5745 5744 5742 5740 5738 5735 5732 5729 5724 5719 5714 5712 5711 5709 5707 5705 5704 5703
5747 5756 5754 5750 5755 5755 5753 5749 5746 5744 5734 5715 5734 5727 5722 5739 5743 5747 5753 5755 5755 5755 5753 5751 5748 5745 5741 5740 5738 5736 5733 5730 5728 5725 5722 5717 5712 5709 5706 5704 5702 5701 5699 5698
5735 5744 5753 5754 5743 5747 5745 5727 5712 5708 5706 5715 5743 5731 5728 5748 5755 5753 5751 5752 5754 5753 5750 5746 5742 5740 5736 5735 5733 5731 5728 5725 5724 5721 5719 5716 5712 5708 5704 5701 5698 5696 5694 5693
5720 5723 5742 5746 5739 5733 5736 5729 5707 5698 5705 5721 5738 5725 5735 5753 5757 5758 5755 5753 5751 5749 5746 5743 5740 5737 5734 5731 5729 5727 5724 5721 5719 5717 5715 5713 5710 5706 5702 5700 5697 5694 5692 5691
5719 5721 5744 5747 5747 5740 5729 5729 5736 5721 5719 5715 5724 5731 5737 5750 5748 5749 5748 5747 5745 5744 5742 5739 5737 5735 5732 5728 5725 5724 5721 5718 5716 5714 5711 5709 5706 5703 5699 5697 5695 5691 5690 5688
5724 5715 5731 5740 5741 5740 5737 5732 5724 5713 5700 5697 5713 5722 5721 5731 5736 5740 5739 5739 5739 5740 5738 5736 5733 5731 5729 5727 5724 5721 5718 5714 5713 5710 5707 5705 5702 5699 5696 5694 5690 5687 5685 5684
5723 5712 5718 5725 5720 5721 5724 5722 5721 5718 5715 5699 5696 5712 5742 5737 5737 5735 5736 5737 5735 5734 5733 5730 5728 5727 5726 5723 5719 5716 5713 5710 5707 5705 5703 5700 5697 5695 5693 5689 5686 5683 5681 5679
5718 5710 5706 5717 5731 5735 5727 5722 5717 5701 5703 5710 5701 5708 5744 5740 5740 5737 5734 5733 5732 5729 5727 5725 5722 5720 5717 5714 5712 5710 5708 5705 5702 5701 5698 5694 5692 5689 5687 5684 5681 5679 5676 5674
5708 5701 5691 5696 5706 5718 5717 5721 5720 5715 5707 5702 5696 5705 5735 5736 5734 5733 5730 5727 5725 5722 5720 5718 5715 5712 5709 5707 5705 5702 5701 5699 5697 5695 5692 5689 5686 5683 5680 5678 5676 5673 5671 5669
5703 5697 5691 5684 5696 5707 5706 5712 5714 5707 5696 5697 5703 5709 5718 5722 5722 5724 5724 5722 5719 5716 5713 5710 5706 5705 5703 5701 5699 5697 5695 5692 5691 5689 5686 5683 5680 5678 5675 5672 5670 5668 5665 5663
5699 5690 5696 5703 5710 5711 5707 5707 5709 5705 5704 5697 5704 5707 5713 5718 5717 5719 5719 5716 5712 5708 5706 5703 5700 5698 5697 5695 5693 5692 5688 5686 5684 5682 5680 5677 5676 5673 5670 5667 5664 5661 5659 5657
5693 5687 5690 5693 5704 5704 5702 5705 5707 5705 5706 5704 5704 5704 5718 5720 5716 5713 5712 5709 5704 5701 5699 5697 5695 5693 5691 5689 5686 5685 5682 5681 5679 5676 5674 5672 5669 5666 5663 5661 5658 5655 5652 5651
5684 5683 5678 5679 5694 5693 5687 5701 5702 5703 5706 5703 5696 5702 5711 5708 5706 5705 5704 5702 5699 5696 5693 5690 5689 5687 5685 5684 5681 5678 5677 5675 5672 5669 5667 5664 5662 5659 5657 5655 5651 5648 5645 5644
5677 5675 5673 5673 5676 5663 5692 5713 5708 5702 5701 5705 5704 5705 5706 5704 5702 5703 5702 5697 5693 5691 5688 5685 5683 5681 5680 5679 5676 5673 5670 5667 5664 5662 5659 5657 5654 5652 5650 5647 5644 5642 5639 5637
5680 5671 5664 5664 5662 5671 5690 5702 5701 5693 5691 5701 5699 5700 5701 5701 5698 5694 5697 5695 5690 5687 5683 5680 5678 5676 5674 5671 5669 5666 5662 5659 5656 5654 5651 5649 5647 5644 5641 5639 5637 5635 5633 5630
5676 5673 5662 5659 5652 5655 5679 5698 5703 5693 5678 5695 5696 5694 5694 5692 5678 5679 5688 5688 5684 5681 5678 5674 5672 5670 5666 5664 5662 5658 5654 5651 5647 5646 5644 5642 5641 5637 5634 5633 5631 5629 5626 5624
5656 5656 5654 5653 5651 5663 5683 5693 5693 5668 5671 5688 5691 5689 5688 5683 5681 5682 5683 5679 5676 5673 5670 5667 5664 5660 5657 5656 5654 5649 5646 5642 5641 5640 5638 5635 5633 5630 5628 5626 5624 5622 5619 5616
5652 5648 5649 5651 5645 5653 5678 5679 5671 5671 5682 5684 5684 5685 5683 5680 5679 5677 5673 5670 5668 5664 5661 5659 5654 5651 5649 5648 5645 5641 5637 5636 5635 5633 5630 5628 5625 5623 5622 5618 5616 5613 5611 5607
5654 5653 5650 5649 5650 5665 5671 5671 5673 5676 5675 5676 5676 5677 5676 5671 5668 5666 5663 5660 5658 5655 5652 5650 5646 5642 5640 5639 5636 5632 5630 5629 5627 5624 5622 5620 5618 5615 5613 5610 5607 5604 5601 5598
5650 5654 5648 5646 5652 5659 5662 5665 5666 5668 5666 5668 5669 5669 5667 5662 5659 5656 5654 5651 5648 5646 5643 5640 5637 5633 5631 5630 5628 5625 5624 5622 5619 5615 5613 5611 5609 5606 5604 5601 5598 5595 5592 5589
5635 5638 5636 5636 5644 5647 5650 5653 5655 5655 5656 5657 5657 5658 5658 5655 5650 5647 5644 5642 5639 5637 5634 5631 5628 5624 5622 5621 5619 5617 5615 5613 5609 5607 5604 5602 5600 5597 5594 5591 5588 5586 5584 5581
5632 5629 5624 5625 5636 5635 5638 5644 5646 5644 5643 5644 5645 5644 5646 5645 5641 5638 5635 5633 5630 5627 5625 5622 5619 5616 5614 5613 5610 5609 5607 5604 5600 5597 5595 5593 5590 5588 5585 5581 5579 5578 5575 5574